Regional Weather Roundup
Issued by NWS Charleston, SC

Current Version | Previous Version | Graphics & Text | Print | Product List | Glossary On
Versions: 1 2 3 4 5 6 7 8 9 10 11 12 13 14 15 16 17 18 19 20 21 22 23 24 25 26 27 28 29 30 31 32 33 34 35 36 37 38 39 40 41 42 43 44 45 46 47 48 49 50
000 ASUS42 KCHS 061211 RWRCHS REGIONAL WEATHER ROUNDUP NATIONAL WEATHER SERVICE CHARLESTON SC 700 AM EST FRI MAR 06 2015 NOTE: "FAIR" INDICATES FEW OR NO CLOUDS BELOW 12,000 FEET WITH NO SIGNIFICANT WEATHER AND/OR OBSTRUCTIONS TO VISIBILITY. NOT ALL STATIONS ARE QUALITY CONTROLLED BY THE NATIONAL WEATHER SERVICE. USE DATA WITH CAUTION...ESPECIALLY DEWPOINT OBSERVATIONS. SCZ027-030-031-034>040-042>050-061300- ...SOUTHEAST SOUTH CAROLINA... CITY SKY/WX TMP DP RH WIND PRES REMARKS N CHARLESTON CLOUDY 38 30 73 NE10 30.36R WCI 31 6HR MIN TEMP: 38; 6HR MAX TEMP: 42; 6HR PCP: TRACE; WATERFRONT PRK N/A 39 N/A N/A N17 N/A WCI 30 MOUNT PLEASANT MIX PCPN 39 34 81 N8G17 30.35S WCI 34 PINOPOLIS N/A 39 32 75 NE16 30.30R WCI 30 MONCKS CORNER CLOUDY 39 30 70 NE10 30.37R WCI 32 SUMMERVILLE CLOUDY 37 32 81 NE10G20 30.36F WCI 30 BEAUFORT MCAS CLOUDY 41 35 79 NE15 30.34R 6HR MIN TEMP: 41; 6HR MAX TEMP: 46; BEAUFORT ARPT CLOUDY 41 37 87 NE20 30.34S HILTON HEAD IS CLOUDY 43 37 81 N14G21 30.35 WALTERBORO CLOUDY 41 34 75 N8 30.37R ALLENDALE CLOUDY 39 32 75 NE9 30.36R WCI 33 ...SOUTHERN MIDLANDS AND PEE DEE... CITY SKY/WX TMP DP RH WIND PRES REMARKS GEORGETOWN NOT AVBL KINGSTREE NOT AVBL ORANGEBURG CLOUDY 38 29 70 NE8 30.38R WCI 32 6HR MIN TEMP: 38; 6HR MAX TEMP: 40; BARNWELL CLOUDY 39 32 75 NE12 30.38R WCI 32 AIKEN CLOUDY 36 30 80 NE12G17 30.40R WCI 27 MANNING CLOUDY 37 28 70 NE12G18 30.39R WCI 30 COLUMBIA CLOUDY 38 29 70 NE10 30.39R WCI 31 6HR MIN TEMP: 38; 6HR MAX TEMP: 41; SUMTER CLOUDY 36 29 76 NE14 30.39R WCI 27 6HR MIN TEMP: 36; 6HR MAX TEMP: 38; FLORENCE CLOUDY 35 26 69 NE10 30.41R WCI 27 6HR MIN TEMP: 35; 6HR MAX TEMP: 38; MYRTLE BEACH CLOUDY 36 27 69 NE16G24 30.40R WCI 26 N MYRTLE BEACH CLOUDY 35 26 69 N12 30.38R WCI 27 6HR MIN TEMP: 35; 6HR MAX TEMP: 38; $$ GAZ063-065-086>088-099>101-113>116-118-119-134>141-150-061300- ...SOUTHEAST GEORGIA... CITY SKY/WX TMP DP RH WIND PRES REMARKS SAVANNAH ARPT CLOUDY 41 36 82 NE12 30.34R 6HR MIN TEMP: 41; 6HR MAX TEMP: 47; 6HR PCP: TRACE; HUNTER AAF CLOUDY 42 39 91 NE13 30.31R 6HR MIN TEMP: 41; 6HR MAX TEMP: 52; 6HR PCP: 0.01; FORT STEWART CLOUDY 43 39 87 N8 30.31R 6HR MIN TEMP: 42; 6HR MAX TEMP: 51; 6HR PCP: TRACE; STATESBORO CLOUDY 40 40 98 NE7 30.34S WCI 36 SYLVANIA CLOUDY 40 35 83 NE9 30.35F WCI 34 CLAXTON CLOUDY 41 37 87 NE7 30.34S ...CSRA...CENTRAL AND FAR SOUTHEAST GEORGIA... CITY SKY/WX TMP DP RH WIND PRES REMARKS THOMSON CLOUDY 41 37 85 NE8 30.42R AUGUSTA-BUSH CLOUDY 40 32 73 E8 30.38R WCI 34 6HR MIN TEMP: 40; 6HR MAX TEMP: 43; AUGUSTA-DANIEL CLOUDY 40 34 79 NE6 30.37R WCI 36 SWAINSBORO CLOUDY 43 30 61 NE8 30.35R VIDALIA CLOUDY 43 37 81 NE8 30.33R EASTMAN CLOUDY 40 40 100 CALM 30.36R FOG HAZLEHURST CLOUDY 44 44 99 NE9 30.30S ALMA CLOUDY 44 41 89 N5 30.30R 6HR MIN TEMP: 44; 6HR MAX TEMP: 47; WAYCROSS CLOUDY 48 46 93 NE6 30.29S JESUP CLOUDY 46 45 93 E7 30.32R BAXLEY CLOUDY 45 41 87 NE13 30.30R BRUNSWICK CLOUDY 45 43 93 N9G21 30.32R SAINT SIMONS CLOUDY 46 42 86 NE18G26 30.31R 6HR MIN TEMP: 46; 6HR MAX TEMP: 58; 6HR PCP: TRACE; $$ SCZ027-028-034-036>038-045-046-048>050-GAZ119-141-061300- ...LAKE AND SUPPLEMENTAL COASTAL OBSERVATIONS... STATION/POSITION TIME TEMP WIND PRES WAVE SWELL AIR SEA DIR/SP/G HT/PER HT/PER/DIR (UTC) (F) (DEG/KT/KT) (MB) (FT/S) (FT/S/D) UPR LAKE MARION NOT AVBL WINYAH BAY NOT AVBL LAKE MURRAY 1100 36 30/ 5/ 10 1028.1R ACE BASIN NERRS NOT AVBL FORT PULASKI 1100 43 54 10/ 12/ 19 1027.1R SAPELO ISLAND NOT AVBL $$ ANZ835-935-AMZ111-154-330-350-352-354-370-450-454-472-061300- ...C-MAN AND BUOY OBSERVATIONS... STATION/POSITION TIME TEMP WIND PRES WAVE SWELL AIR SEA DIR/SP/G HT/PER HT/PER/DIR (UTC) (F) (DEG/KT/KT) (MB) (FT/S) (FT/S/D) BUOY 41004 1150 46 68 20/ 27/ 33 1024.9R 11/ 8 BUOY 41008 1150 47 55 30/ 23/ 29 1025.2R 6/ 7 2/ 90/11 FOLLY BEACH CMAN 1200 40 10/ 16/ 19 1028.0R CAPERS NEARSHORE 1100 40 30/ 21/ 25 N/A FRIPP NEARSHORE 1100 42 20/ 19/ 21 1025.6R STATION/POSITION TIME TEMP WIND PRES WAVE SWELL AIR SEA DIR/SP/G HT/PER HT/PER/DIR (UTC) (F) (DEG/KT/KT) (MB) (FT/S) (FT/S/D) 5E ST. MARYS GA 1121 54 N/A 5/ 5 2/120/11 FRYING PAN BUOY 1150 41 62 30/ 25/ 31 1026.8R 10/ 8 BUOY 41025 NOT AVBL CAPE LOOKOUT NC 1100 20/ 21/ 26 1028.2R BUOY 41002 1150 66 72 10/ 21/ 25 1020.3R 7/ 7 3/100/11 BUOY 41010 1120 75 75 270/ 6/ 6 1020.5R ST AUGUSTINE FL 1200 53 10/ 20/ 22 1024.4R $$

USA.gov is the U.S. government's official web portal to all federal, state and local government web resources and services.